Time,TemperatureF,DewpointF,PressureIn,WindDirection,WindDirectionDegrees,WindSpeedMPH,WindSpeedGustMPH,Humidity,HourlyPrecipIn,Conditions,Clouds,dailyrainin,SoftwareType,DateUTC
2013-08-18 00:02:00,85.8,29.3,29.82,North,-999,0.0,0.0,13,0.00,,,-99.99,FreeWX-Wi 1.02,2013-08-18 07:02:00,
2013-08-18 00:07:00,85.6,29.1,29.82,North,-999,0.0,0.0,13,0.00,,,-99.99,FreeWX-Wi 1.02,2013-08-18 07:07:00,
2013-08-18 00:12:00,85.6,29.1,29.82,North,-999,0.0,0.0,13,0.00,,,-99.99,FreeWX-Wi 1.02,2013-08-18 07:12:00,
2013-08-18 00:17:00,85.6,29.1,29.82,North,-999,0.0,0.0,13,0.00,,,-99.99,FreeWX-Wi 1.02,2013-08-18 07:17:00,
2013-08-18 00:22:00,85.5,28.9,29.82,North,-999,0.0,0.0,13,0.00,,,-99.99,FreeWX-Wi 1.02,2013-08-18 07:22:00,
2013-08-18 00:27:00,85.1,28.8,29.82,North,-999,0.0,0.0,13,0.00,,,-99.99,FreeWX-Wi 1.02,2013-08-18 07:27:00,
2013-08-18 00:32:00,85.1,28.8,29.82,North,-999,0.0,0.0,13,0.00,,,-99.99,FreeWX-Wi 1.02,2013-08-18 07:32:00,
2013-08-18 00:37:00,85.1,28.8,29.82,North,-999,0.0,0.0,13,0.00,,,-99.99,FreeWX-Wi 1.02,2013-08-18 07:37:00,
2013-08-18 00:42:00,84.7,28.4,29.82,North,-999,0.0,0.0,13,0.00,,,-99.99,FreeWX-Wi 1.02,2013-08-18 07:42:00,
2013-08-18 00:47:00,84.6,28.2,29.82,North,-999,0.0,0.0,13,0.00,,,-99.99,FreeWX-Wi 1.02,2013-08-18 07:47:00,
2013-08-18 00:52:00,84.6,28.2,29.82,North,-999,0.0,0.0,13,0.00,,,-99.99,FreeWX-Wi 1.02,2013-08-18 07:52:00,
2013-08-18 00:57:00,84.6,28.2,29.82,North,-999,0.0,0.0,13,0.00,,,-99.99,FreeWX-Wi 1.02,2013-08-18 07:57:00,
2013-08-18 01:02:00,84.4,28.2,29.82,North,-999,0.0,0.0,13,0.00,,,-99.99,FreeWX-Wi 1.02,2013-08-18 08:02:00,
2013-08-18 01:07:00,84.0,29.7,29.82,North,-999,0.0,0.0,14,0.00,,,-99.99,FreeWX-Wi 1.02,2013-08-18 08:07:00,
2013-08-18 01:12:00,84.2,28.0,29.82,North,-999,0.0,0.0,13,0.00,,,-99.99,FreeWX-Wi 1.02,2013-08-18 08:12:00,
2013-08-18 01:17:00,84.2,28.0,29.82,North,-999,0.0,0.0,13,0.00,,,-99.99,FreeWX-Wi 1.02,2013-08-18 08:17:00,
2013-08-18 01:22:00,84.0,29.7,29.82,North,-999,0.0,0.0,14,0.00,,,-99.99,FreeWX-Wi 1.02,2013-08-18 08:22:00,
2013-08-18 01:27:00,84.0,29.7,29.82,North,-999,0.0,0.0,14,0.00,,,-99.99,FreeWX-Wi 1.02,2013-08-18 08:27:00,
2013-08-18 01:32:00,84.2,28.0,29.82,North,-999,0.0,0.0,13,0.00,,,-99.99,FreeWX-Wi 1.02,2013-08-18 08:32:00,
2013-08-18 01:37:00,84.0,29.7,29.82,North,-999,0.0,0.0,14,0.00,,,-99.99,FreeWX-Wi 1.02,2013-08-18 08:37:00,
2013-08-18 01:42:00,83.7,29.5,29.82,North,-999,0.0,0.0,14,0.00,,,-99.99,FreeWX-Wi 1.02,2013-08-18 08:42:00,
2013-08-18 01:47:00,83.5,29.3,29.82,North,-999,0.0,0.0,14,0.00,,,-99.99,FreeWX-Wi 1.02,2013-08-18 08:47:00,
2013-08-18 01:52:00,83.7,29.5,29.82,North,-999,0.0,0.0,14,0.00,,,-99.99,FreeWX-Wi 1.02,2013-08-18 08:52:00,
2013-08-18 01:57:00,83.5,29.3,29.82,North,-999,0.0,0.0,14,0.00,,,-99.99,FreeWX-Wi 1.02,2013-08-18 08:57:00,
2013-08-18 02:02:00,83.3,29.1,29.82,North,-999,0.0,2.7,14,0.00,,,-99.99,FreeWX-Wi 1.02,2013-08-18 09:02:00,
2013-08-18 02:07:00,82.9,28.8,29.82,North,-999,0.0,0.0,14,0.00,,,-99.99,FreeWX-Wi 1.02,2013-08-18 09:07:00,
2013-08-18 02:12:00,82.9,28.8,29.82,North,-999,0.0,0.0,14,0.00,,,-99.99,FreeWX-Wi 1.02,2013-08-18 09:12:00,
2013-08-18 02:17:00,82.6,28.6,29.82,North,-999,0.0,0.0,14,0.00,,,-99.99,FreeWX-Wi 1.02,2013-08-18 09:17:00,
2013-08-18 02:22:00,82.2,28.2,29.82,North,-999,0.0,0.0,14,0.00,,,-99.99,FreeWX-Wi 1.02,2013-08-18 09:22:00,
2013-08-18 02:27:00,82.0,28.0,29.82,North,-999,0.0,0.0,14,0.00,,,-99.99,FreeWX-Wi 1.02,2013-08-18 09:27:00,
2013-08-18 02:32:00,82.2,28.2,29.82,North,-999,0.0,0.0,14,0.00,,,-99.99,FreeWX-Wi 1.02,2013-08-18 09:32:00,
2013-08-18 02:37:00,82.4,28.4,29.82,North,-999,0.0,0.0,14,0.00,,,-99.99,FreeWX-Wi 1.02,2013-08-18 09:37:00,
2013-08-18 02:42:00,82.2,28.2,29.82,North,-999,0.0,3.1,14,0.00,,,-99.99,FreeWX-Wi 1.02,2013-08-18 09:42:00,
2013-08-18 02:47:00,82.2,28.2,29.82,North,-999,0.0,0.0,14,0.00,,,-99.99,FreeWX-Wi 1.02,2013-08-18 09:47:00,
2013-08-18 02:52:00,82.6,28.6,29.82,North,-999,0.0,2.7,14,0.00,,,-99.99,FreeWX-Wi 1.02,2013-08-18 09:52:00,
2013-08-18 02:57:00,82.8,28.8,29.82,North,-999,0.0,0.0,14,0.00,,,-99.99,FreeWX-Wi 1.02,2013-08-18 09:57:00,
2013-08-18 03:02:00,82.6,28.6,29.82,North,-999,0.0,0.0,14,0.00,,,-99.99,FreeWX-Wi 1.02,2013-08-18 10:02:00,
2013-08-18 03:07:00,83.5,29.3,29.85,North,-999,0.0,7.6,14,0.00,,,-99.99,FreeWX-Wi 1.02,2013-08-18 10:07:00,
2013-08-18 03:12:00,84.2,28.0,29.85,WSW,244,1.0,5.4,13,0.00,,,-99.99,FreeWX-Wi 1.02,2013-08-18 10:12:00,
2013-08-18 03:17:00,84.6,28.2,29.85,SW,219,1.0,2.7,13,0.00,,,-99.99,FreeWX-Wi 1.02,2013-08-18 10:17:00,
2013-08-18 03:22:00,84.7,28.4,29.85,SSW,192,1.0,2.2,13,0.00,,,-99.99,FreeWX-Wi 1.02,2013-08-18 10:22:00,
2013-08-18 03:27:00,83.8,29.5,29.85,South,173,1.0,4.0,14,0.00,,,-99.99,FreeWX-Wi 1.02,2013-08-18 10:27:00,
2013-08-18 03:32:00,83.8,29.5,29.85,SSE,162,1.0,4.0,14,0.00,,,-99.99,FreeWX-Wi 1.02,2013-08-18 10:32:00,
2013-08-18 03:37:00,84.0,29.7,29.85,SSE,166,1.0,4.0,14,0.00,,,-99.99,FreeWX-Wi 1.02,2013-08-18 10:37:00,
2013-08-18 03:42:00,83.8,29.5,29.85,North,-999,0.0,0.0,14,0.00,,,-99.99,FreeWX-Wi 1.02,2013-08-18 10:42:00,
2013-08-18 03:47:00,83.8,29.5,29.85,North,-999,0.0,0.0,14,0.00,,,-99.99,FreeWX-Wi 1.02,2013-08-18 10:47:00,
2013-08-18 03:52:00,83.3,29.1,29.85,North,-999,0.0,0.0,14,0.00,,,-99.99,FreeWX-Wi 1.02,2013-08-18 10:52:00,
2013-08-18 03:57:00,82.8,28.8,29.85,North,-999,0.0,0.0,14,0.00,,,-99.99,FreeWX-Wi 1.02,2013-08-18 10:57:00,
2013-08-18 04:02:00,82.6,28.6,29.85,North,-999,0.0,0.0,14,0.00,,,-99.99,FreeWX-Wi 1.02,2013-08-18 11:02:00,
2013-08-18 04:07:00,82.6,28.6,29.85,North,-999,0.0,0.0,14,0.00,,,-99.99,FreeWX-Wi 1.02,2013-08-18 11:07:00,
2013-08-18 04:12:00,82.8,28.8,29.85,North,-999,0.0,0.0,14,0.00,,,-99.99,FreeWX-Wi 1.02,2013-08-18 11:12:00,
2013-08-18 04:17:00,82.2,28.2,29.85,North,-999,0.0,3.6,14,0.00,,,-99.99,FreeWX-Wi 1.02,2013-08-18 11:17:00,
2013-08-18 04:22:00,82.8,28.8,29.85,North,-999,0.0,3.1,14,0.00,,,-99.99,FreeWX-Wi 1.02,2013-08-18 11:22:00,
2013-08-18 04:27:00,83.1,28.9,29.85,North,-999,0.0,3.6,14,0.00,,,-99.99,FreeWX-Wi 1.02,2013-08-18 11:27:00,
2013-08-18 04:32:00,82.8,28.8,29.85,North,-999,0.0,0.0,14,0.00,,,-99.99,FreeWX-Wi 1.02,2013-08-18 11:32:00,
2013-08-18 04:37:00,83.3,29.1,29.85,North,-999,0.0,0.0,14,0.00,,,-99.99,FreeWX-Wi 1.02,2013-08-18 11:37:00,
2013-08-18 04:42:00,82.9,28.8,29.85,North,-999,0.0,2.7,14,0.00,,,-99.99,FreeWX-Wi 1.02,2013-08-18 11:42:00,
2013-08-18 04:47:00,82.9,28.8,29.85,North,-999,0.0,2.7,14,0.00,,,-99.99,FreeWX-Wi 1.02,2013-08-18 11:47:00,
2013-08-18 04:52:00,82.8,28.8,29.85,North,-999,0.0,0.0,14,0.00,,,-99.99,FreeWX-Wi 1.02,2013-08-18 11:52:00,
2013-08-18 04:57:00,82.8,28.8,29.85,North,-999,0.0,0.0,14,0.00,,,-99.99,FreeWX-Wi 1.02,2013-08-18 11:57:00,
2013-08-18 05:02:00,82.2,28.2,29.85,North,-999,0.0,0.0,14,0.00,,,-99.99,FreeWX-Wi 1.02,2013-08-18 12:02:00,
2013-08-18 05:07:00,82.0,28.0,29.85,North,-999,0.0,0.0,14,0.00,,,-99.99,FreeWX-Wi 1.02,2013-08-18 12:07:00,
2013-08-18 05:12:00,81.9,28.0,29.85,North,-999,0.0,0.0,14,0.00,,,-99.99,FreeWX-Wi 1.02,2013-08-18 12:12:00,
2013-08-18 05:17:00,81.7,27.9,29.85,North,-999,0.0,0.0,14,0.00,,,-99.99,FreeWX-Wi 1.02,2013-08-18 12:17:00,
2013-08-18 05:22:00,81.9,28.0,29.85,North,-999,0.0,2.7,14,0.00,,,-99.99,FreeWX-Wi 1.02,2013-08-18 12:22:00,
2013-08-18 05:27:00,82.4,28.4,29.85,North,-999,0.0,0.0,14,0.00,,,-99.99,FreeWX-Wi 1.02,2013-08-18 12:27:00,
2013-08-18 05:32:00,82.0,28.0,29.85,North,-999,0.0,2.7,14,0.00,,,-99.99,FreeWX-Wi 1.02,2013-08-18 12:32:00,
2013-08-18 05:37:00,81.7,27.9,29.85,North,-999,0.0,3.6,14,0.00,,,-99.99,FreeWX-Wi 1.02,2013-08-18 12:37:00,
2013-08-18 05:42:00,81.7,27.9,29.85,North,-999,0.0,3.1,14,0.00,,,-99.99,FreeWX-Wi 1.02,2013-08-18 12:42:00,
2013-08-18 05:47:00,81.7,27.9,29.85,North,-999,0.0,3.6,14,0.00,,,-99.99,FreeWX-Wi 1.02,2013-08-18 12:47:00,
2013-08-18 05:52:00,81.3,27.5,29.88,North,-999,0.0,0.0,14,0.00,,,-99.99,FreeWX-Wi 1.02,2013-08-18 12:52:00,
2013-08-18 05:57:00,81.0,27.3,29.88,North,-999,0.0,0.0,14,0.00,,,-99.99,FreeWX-Wi 1.02,2013-08-18 12:57:00,
2013-08-18 06:02:00,80.6,27.0,29.88,North,-999,0.0,0.0,14,0.00,,,-99.99,FreeWX-Wi 1.02,2013-08-18 13:02:00,
2013-08-18 06:07:00,80.6,27.0,29.88,North,-999,0.0,0.0,14,0.00,,,-99.99,FreeWX-Wi 1.02,2013-08-18 13:07:00,
2013-08-18 06:12:00,80.6,27.0,29.88,North,-999,0.0,0.0,14,0.00,,,-99.99,FreeWX-Wi 1.02,2013-08-18 13:12:00,
2013-08-18 06:17:00,80.8,27.1,29.88,North,-999,0.0,2.7,14,0.00,,,-99.99,FreeWX-Wi 1.02,2013-08-18 13:17:00,
2013-08-18 06:22:00,81.7,27.9,29.88,North,-999,0.0,2.7,14,0.00,,,-99.99,FreeWX-Wi 1.02,2013-08-18 13:22:00,
2013-08-18 06:27:00,82.4,28.4,29.88,North,-999,0.0,3.1,14,0.00,,,-99.99,FreeWX-Wi 1.02,2013-08-18 13:27:00,
2013-08-18 06:32:00,82.6,28.6,29.88,North,-999,0.0,0.0,14,0.00,,,-99.99,FreeWX-Wi 1.02,2013-08-18 13:32:00,
2013-08-18 06:37:00,82.9,28.8,29.88,North,-999,0.0,2.7,14,0.00,,,-99.99,FreeWX-Wi 1.02,2013-08-18 13:37:00,
2013-08-18 06:42:00,83.3,29.1,29.88,North,-999,0.0,0.0,14,0.00,,,-99.99,FreeWX-Wi 1.02,2013-08-18 13:42:00,
2013-08-18 06:47:00,83.5,29.3,29.88,North,-999,0.0,2.7,14,0.00,,,-99.99,FreeWX-Wi 1.02,2013-08-18 13:47:00,
2013-08-18 06:52:00,83.7,29.5,29.88,North,-999,0.0,0.0,14,0.00,,,-99.99,FreeWX-Wi 1.02,2013-08-18 13:52:00,
2013-08-18 06:57:00,83.7,29.5,29.88,North,-999,0.0,0.0,14,0.00,,,-99.99,FreeWX-Wi 1.02,2013-08-18 13:57:00,
2013-08-18 07:02:00,83.7,29.5,29.88,North,-999,0.0,0.0,14,0.00,,,-99.99,FreeWX-Wi 1.02,2013-08-18 14:02:00,
2013-08-18 07:07:00,83.8,29.5,29.88,North,-999,0.0,0.0,14,0.00,,,-99.99,FreeWX-Wi 1.02,2013-08-18 14:07:00,
2013-08-18 07:12:00,84.2,28.0,29.88,North,-999,0.0,0.0,13,0.00,,,-99.99,FreeWX-Wi 1.02,2013-08-18 14:12:00,
2013-08-18 07:17:00,85.1,28.8,29.88,North,-999,0.0,0.0,13,0.00,,,-99.99,FreeWX-Wi 1.02,2013-08-18 14:17:00,
2013-08-18 07:22:00,85.6,29.1,29.88,North,-999,0.0,0.0,13,0.00,,,-99.99,FreeWX-Wi 1.02,2013-08-18 14:22:00,
2013-08-18 07:27:00,86.2,29.5,29.88,North,-999,0.0,0.0,13,0.00,,,-99.99,FreeWX-Wi 1.02,2013-08-18 14:27:00,
2013-08-18 07:32:00,86.5,29.8,29.88,North,-999,0.0,0.0,13,0.00,,,-99.99,FreeWX-Wi 1.02,2013-08-18 14:32:00,
2013-08-18 07:37:00,87.4,30.6,29.88,North,-999,0.0,0.0,13,0.00,,,-99.99,FreeWX-Wi 1.02,2013-08-18 14:37:00,
2013-08-18 07:42:00,88.2,31.1,29.88,North,-999,0.0,0.0,13,0.00,,,-99.99,FreeWX-Wi 1.02,2013-08-18 14:42:00,
2013-08-18 07:47:00,89.4,32.0,29.88,North,-999,0.0,4.9,13,0.00,,,-99.99,FreeWX-Wi 1.02,2013-08-18 14:47:00,
2013-08-18 07:52:00,91.0,31.3,29.88,South,173,1.0,4.9,12,0.00,,,-99.99,FreeWX-Wi 1.02,2013-08-18 14:52:00,
2013-08-18 07:57:00,92.3,32.4,29.88,SSE,152,1.0,6.3,12,0.00,,,-99.99,FreeWX-Wi 1.02,2013-08-18 14:57:00,
2013-08-18 08:02:00,93.2,36.9,29.88,SE,131,2.0,5.8,14,0.00,,,-99.99,FreeWX-Wi 1.02,2013-08-18 15:02:00,
2013-08-18 08:07:00,93.7,37.2,29.88,ESE,116,2.0,5.8,14,0.00,,,-99.99,FreeWX-Wi 1.02,2013-08-18 15:07:00,
2013-08-18 08:12:00,94.6,37.9,29.88,ESE,103,3.0,6.3,14,0.00,,,-99.99,FreeWX-Wi 1.02,2013-08-18 15:12:00,
2013-08-18 08:17:00,95.4,38.7,29.88,ESE,103,3.0,5.8,14,0.00,,,-99.99,FreeWX-Wi 1.02,2013-08-18 15:17:00,
2013-08-18 08:22:00,95.7,38.8,29.91,ESE,106,3.0,6.3,14,0.00,,,-99.99,FreeWX-Wi 1.02,2013-08-18 15:22:00,
2013-08-18 08:27:00,96.4,39.4,29.91,ESE,105,3.0,5.8,14,0.00,,,-99.99,FreeWX-Wi 1.02,2013-08-18 15:27:00,
2013-08-18 08:32:00,96.6,39.6,29.91,ESE,110,3.0,6.3,14,0.00,,,-99.99,FreeWX-Wi 1.02,2013-08-18 15:32:00,
2013-08-18 08:37:00,96.6,39.6,29.91,ESE,114,3.0,6.3,14,0.00,,,-99.99,FreeWX-Wi 1.02,2013-08-18 15:37:00,
2013-08-18 08:42:00,97.2,38.1,29.91,ESE,118,3.0,4.9,13,0.00,,,-99.99,FreeWX-Wi 1.02,2013-08-18 15:42:00,
2013-08-18 08:47:00,97.9,38.7,29.91,ESE,118,3.0,8.7,13,0.00,,,-99.99,FreeWX-Wi 1.02,2013-08-18 15:47:00,
2013-08-18 08:52:00,98.6,39.2,29.91,ESE,118,3.0,5.4,13,0.00,,,-99.99,FreeWX-Wi 1.02,2013-08-18 15:52:00,
2013-08-18 08:57:00,98.8,39.4,29.91,ESE,123,3.0,8.7,13,0.00,,,-99.99,FreeWX-Wi 1.02,2013-08-18 15:57:00,
2013-08-18 09:02:00,98.6,39.2,29.91,SE,129,3.0,8.1,13,0.00,,,-99.99,FreeWX-Wi 1.02,2013-08-18 16:02:00,
2013-08-18 09:07:00,98.6,39.2,29.91,SE,133,4.0,8.1,13,0.00,,,-99.99,FreeWX-Wi 1.02,2013-08-18 16:07:00,
2013-08-18 09:12:00,99.1,39.6,29.91,SE,142,4.0,7.2,13,0.00,,,-99.99,FreeWX-Wi 1.02,2013-08-18 16:12:00,
2013-08-18 09:17:00,99.5,39.9,29.91,SSE,151,4.0,4.9,13,0.00,,,-99.99,FreeWX-Wi 1.02,2013-08-18 16:17:00,
2013-08-18 09:22:00,100.0,40.3,29.91,SSE,158,3.0,6.3,13,0.00,,,-99.99,FreeWX-Wi 1.02,2013-08-18 16:22:00,
2013-08-18 09:27:00,100.4,38.5,29.91,SSE,152,3.0,4.0,12,0.00,,,-99.99,FreeWX-Wi 1.02,2013-08-18 16:27:00,
2013-08-18 09:32:00,100.8,38.8,29.91,SE,142,2.0,6.3,12,0.00,,,-99.99,FreeWX-Wi 1.02,2013-08-18 16:32:00,
2013-08-18 09:37:00,100.9,39.0,29.91,SE,141,2.0,6.3,12,0.00,,,-99.99,FreeWX-Wi 1.02,2013-08-18 16:37:00,
2013-08-18 09:42:00,101.1,39.0,29.91,SE,142,2.0,8.3,12,0.00,,,-99.99,FreeWX-Wi 1.02,2013-08-18 16:42:00,
2013-08-18 09:47:00,101.3,39.2,29.91,SE,141,2.0,5.4,12,0.00,,,-99.99,FreeWX-Wi 1.02,2013-08-18 16:47:00,
2013-08-18 09:52:00,101.7,39.6,29.91,SE,139,2.0,4.9,12,0.00,,,-99.99,FreeWX-Wi 1.02,2013-08-18 16:52:00,
2013-08-18 09:57:00,101.8,39.6,29.91,SE,146,2.0,8.1,12,0.00,,,-99.99,FreeWX-Wi 1.02,2013-08-18 16:57:00,
2013-08-18 10:02:00,101.7,39.6,29.91,SSE,158,3.0,6.3,12,0.00,,,-99.99,FreeWX-Wi 1.02,2013-08-18 17:02:00,
2013-08-18 10:07:00,101.8,39.6,29.91,SSE,157,3.0,7.2,12,0.00,,,-99.99,FreeWX-Wi 1.02,2013-08-18 17:07:00,
2013-08-18 10:12:00,101.8,39.6,29.91,SSE,164,3.0,6.3,12,0.00,,,-99.99,FreeWX-Wi 1.02,2013-08-18 17:12:00,
2013-08-18 10:17:00,102.0,39.7,29.91,South,175,3.0,6.3,12,0.00,,,-99.99,FreeWX-Wi 1.02,2013-08-18 17:17:00,
2013-08-18 10:22:00,102.0,39.7,29.91,South,184,4.0,6.3,12,0.00,,,-99.99,FreeWX-Wi 1.02,2013-08-18 17:22:00,
2013-08-18 10:27:00,102.9,40.5,29.91,South,187,4.0,5.8,12,0.00,,,-99.99,FreeWX-Wi 1.02,2013-08-18 17:27:00,
2013-08-18 10:32:00,102.9,40.5,29.91,South,189,4.0,6.3,12,0.00,,,-99.99,FreeWX-Wi 1.02,2013-08-18 17:32:00,
2013-08-18 10:37:00,103.3,40.8,29.91,SSW,194,3.0,7.6,12,0.00,,,-99.99,FreeWX-Wi 1.02,2013-08-18 17:37:00,
2013-08-18 10:42:00,102.9,40.5,29.91,SSW,192,3.0,8.3,12,0.00,,,-99.99,FreeWX-Wi 1.02,2013-08-18 17:42:00,
2013-08-18 10:47:00,103.3,40.8,29.91,South,186,3.0,6.7,12,0.00,,,-99.99,FreeWX-Wi 1.02,2013-08-18 17:47:00,
2013-08-18 10:52:00,103.5,40.8,29.91,South,180,3.0,8.7,12,0.00,,,-99.99,FreeWX-Wi 1.02,2013-08-18 17:52:00,
2013-08-18 10:57:00,104.2,41.4,29.91,South,179,3.0,8.1,12,0.00,,,-99.99,FreeWX-Wi 1.02,2013-08-18 17:57:00,
2013-08-18 11:02:00,104.4,41.5,29.91,South,174,4.0,8.7,12,0.00,,,-99.99,FreeWX-Wi 1.02,2013-08-18 18:02:00,
2013-08-18 11:07:00,104.5,41.7,29.88,SSE,168,4.0,7.2,12,0.00,,,-99.99,FreeWX-Wi 1.02,2013-08-18 18:07:00,
2013-08-18 11:12:00,104.7,41.9,29.88,SSE,162,4.0,8.1,12,0.00,,,-99.99,FreeWX-Wi 1.02,2013-08-18 18:12:00,
2013-08-18 11:17:00,104.0,41.4,29.88,SSE,167,4.0,8.3,12,0.00,,,-99.99,FreeWX-Wi 1.02,2013-08-18 18:17:00,
2013-08-18 11:22:00,104.4,41.5,29.88,South,175,4.0,8.1,12,0.00,,,-99.99,FreeWX-Wi 1.02,2013-08-18 18:22:00,
2013-08-18 11:27:00,104.7,41.9,29.88,South,170,4.0,5.8,12,0.00,,,-99.99,FreeWX-Wi 1.02,2013-08-18 18:27:00,
2013-08-18 11:32:00,105.3,42.3,29.88,SSE,167,4.0,8.7,12,0.00,,,-99.99,FreeWX-Wi 1.02,2013-08-18 18:32:00,
2013-08-18 11:37:00,105.1,42.1,29.88,South,174,4.0,5.8,12,0.00,,,-99.99,FreeWX-Wi 1.02,2013-08-18 18:37:00,
2013-08-18 11:42:00,105.4,42.4,29.88,South,175,4.0,11.0,12,0.00,,,-99.99,FreeWX-Wi 1.02,2013-08-18 18:42:00,
2013-08-18 11:47:00,106.3,40.8,29.88,SSE,167,5.0,10.5,11,0.00,,,-99.99,FreeWX-Wi 1.02,2013-08-18 18:47:00,
2013-08-18 11:52:00,107.1,41.4,29.88,SSE,154,4.0,8.1,11,0.00,,,-99.99,FreeWX-Wi 1.02,2013-08-18 18:52:00,
2013-08-18 11:57:00,107.6,41.7,29.88,SSE,157,5.0,10.1,11,0.00,,,-99.99,FreeWX-Wi 1.02,2013-08-18 18:57:00,
2013-08-18 12:02:00,107.6,41.7,29.88,SSE,156,5.0,8.3,11,0.00,,,-99.99,FreeWX-Wi 1.02,2013-08-18 19:02:00,
2013-08-18 12:07:00,108.7,42.6,29.88,SE,144,5.0,8.3,11,0.00,,,-99.99,FreeWX-Wi 1.02,2013-08-18 19:07:00,
2013-08-18 12:12:00,107.8,41.9,29.88,SE,143,5.0,10.5,11,0.00,,,-99.99,FreeWX-Wi 1.02,2013-08-18 19:12:00,
2013-08-18 12:17:00,108.5,42.4,29.88,SE,138,5.0,10.5,11,0.00,,,-99.99,FreeWX-Wi 1.02,2013-08-18 19:17:00,
2013-08-18 12:22:00,109.4,40.6,29.88,SE,137,6.0,11.0,10,0.00,,,-99.99,FreeWX-Wi 1.02,2013-08-18 19:22:00,
2013-08-18 12:27:00,108.3,42.3,29.88,SE,134,5.0,10.1,11,0.00,,,-99.99,FreeWX-Wi 1.02,2013-08-18 19:27:00,
2013-08-18 12:32:00,108.0,42.1,29.88,SE,135,6.0,10.5,11,0.00,,,-99.99,FreeWX-Wi 1.02,2013-08-18 19:32:00,
2013-08-18 12:37:00,108.0,42.1,29.88,SE,137,6.0,9.2,11,0.00,,,-99.99,FreeWX-Wi 1.02,2013-08-18 19:37:00,
2013-08-18 12:42:00,108.3,42.3,29.88,SE,143,5.0,9.6,11,0.00,,,-99.99,FreeWX-Wi 1.02,2013-08-18 19:42:00,
2013-08-18 12:47:00,108.7,42.6,29.88,SSE,150,6.0,10.5,11,0.00,,,-99.99,FreeWX-Wi 1.02,2013-08-18 19:47:00,
2013-08-18 12:52:00,109.9,41.0,29.88,SE,145,6.0,8.1,10,0.00,,,-99.99,FreeWX-Wi 1.02,2013-08-18 19:52:00,
2013-08-18 12:57:00,110.1,41.2,29.88,SSE,151,6.0,12.8,10,0.00,,,-99.99,FreeWX-Wi 1.02,2013-08-18 19:57:00,
2013-08-18 13:02:00,110.3,41.4,29.88,SSE,148,6.0,10.1,10,0.00,,,-99.99,FreeWX-Wi 1.02,2013-08-18 20:02:00,
2013-08-18 13:07:00,109.9,41.0,29.85,SSE,148,6.0,8.3,10,0.00,,,-99.99,FreeWX-Wi 1.02,2013-08-18 20:07:00,
2013-08-18 13:12:00,110.8,41.7,29.85,SE,136,6.0,8.7,10,0.00,,,-99.99,FreeWX-Wi 1.02,2013-08-18 20:12:00,
2013-08-18 13:17:00,110.3,41.4,29.85,SE,136,6.0,13.2,10,0.00,,,-99.99,FreeWX-Wi 1.02,2013-08-18 20:17:00,
2013-08-18 13:22:00,110.8,41.7,29.85,SE,141,6.0,10.5,10,0.00,,,-99.99,FreeWX-Wi 1.02,2013-08-18 20:22:00,
2013-08-18 13:27:00,110.7,41.5,29.85,SE,141,6.0,13.2,10,0.00,,,-99.99,FreeWX-Wi 1.02,2013-08-18 20:27:00,
2013-08-18 13:32:00,110.5,41.5,29.85,SE,142,7.0,15.4,10,0.00,,,-99.99,FreeWX-Wi 1.02,2013-08-18 20:32:00,
2013-08-18 13:37:00,110.8,41.7,29.85,SE,137,7.0,14.5,10,0.00,,,-99.99,FreeWX-Wi 1.02,2013-08-18 20:37:00,
2013-08-18 13:43:00,111.9,42.6,29.85,SE,137,7.0,8.1,10,0.00,,,-99.99,FreeWX-Wi 1.02,2013-08-18 20:43:00,
2013-08-18 13:48:00,111.9,42.6,29.85,SE,134,7.0,15.0,10,0.00,,,-99.99,FreeWX-Wi 1.02,2013-08-18 20:48:00,
2013-08-18 13:53:00,112.1,42.6,29.85,SE,134,7.0,12.8,10,0.00,,,-99.99,FreeWX-Wi 1.02,2013-08-18 20:53:00,
2013-08-18 13:58:00,111.7,42.4,29.85,SE,133,7.0,15.4,10,0.00,,,-99.99,FreeWX-Wi 1.02,2013-08-18 20:58:00,
2013-08-18 14:03:00,112.5,43.0,29.85,SE,129,7.0,15.0,10,0.00,,,-99.99,FreeWX-Wi 1.02,2013-08-18 21:03:00,
2013-08-18 14:08:00,112.6,43.2,29.85,SE,131,7.0,11.0,10,0.00,,,-99.99,FreeWX-Wi 1.02,2013-08-18 21:08:00,
2013-08-18 14:13:00,112.5,43.0,29.85,SE,131,8.0,12.8,10,0.00,,,-99.99,FreeWX-Wi 1.02,2013-08-18 21:13:00,
2013-08-18 14:18:00,112.6,43.2,29.85,SE,131,8.0,17.0,10,0.00,,,-99.99,FreeWX-Wi 1.02,2013-08-18 21:18:00,
2013-08-18 14:23:00,112.5,43.0,29.85,SE,130,8.0,15.0,10,0.00,,,-99.99,FreeWX-Wi 1.02,2013-08-18 21:23:00,
2013-08-18 14:28:00,113.0,43.3,29.85,SE,125,8.0,13.2,10,0.00,,,-99.99,FreeWX-Wi 1.02,2013-08-18 21:28:00,
2013-08-18 14:33:00,111.9,42.6,29.85,SE,125,8.0,17.0,10,0.00,,,-99.99,FreeWX-Wi 1.02,2013-08-18 21:33:00,
2013-08-18 14:38:00,112.3,42.8,29.82,SE,125,8.0,14.1,10,0.00,,,-99.99,FreeWX-Wi 1.02,2013-08-18 21:38:00,
2013-08-18 14:43:00,111.7,42.4,29.82,SE,125,8.0,13.2,10,0.00,,,-99.99,FreeWX-Wi 1.02,2013-08-18 21:43:00,
2013-08-18 14:48:00,108.7,42.6,29.82,SE,129,8.0,13.2,11,0.00,,,-99.99,FreeWX-Wi 1.02,2013-08-18 21:48:00,
2013-08-18 14:53:00,107.8,41.9,29.82,SE,128,8.0,10.5,11,0.00,,,-99.99,FreeWX-Wi 1.02,2013-08-18 21:53:00,
2013-08-18 14:58:00,107.4,41.7,29.82,SE,132,8.0,10.1,11,0.00,,,-99.99,FreeWX-Wi 1.02,2013-08-18 21:58:00,
2013-08-18 15:03:00,106.7,41.2,29.82,SE,137,8.0,16.3,11,0.00,,,-99.99,FreeWX-Wi 1.02,2013-08-18 22:03:00,
2013-08-18 15:08:00,107.6,41.7,29.82,SE,142,8.0,13.6,11,0.00,,,-99.99,FreeWX-Wi 1.02,2013-08-18 22:08:00,
2013-08-18 15:13:00,107.8,41.9,29.82,SE,146,8.0,12.3,11,0.00,,,-99.99,FreeWX-Wi 1.02,2013-08-18 22:13:00,
2013-08-18 15:18:00,108.5,42.4,29.82,SSE,150,8.0,11.0,11,0.00,,,-99.99,FreeWX-Wi 1.02,2013-08-18 22:18:00,
2013-08-18 15:23:00,108.3,42.3,29.82,SSE,151,8.0,12.8,11,0.00,,,-99.99,FreeWX-Wi 1.02,2013-08-18 22:23:00,
2013-08-18 15:28:00,106.7,41.2,29.82,SSE,149,8.0,12.8,11,0.00,,,-99.99,FreeWX-Wi 1.02,2013-08-18 22:28:00,
2013-08-18 15:33:00,105.8,40.5,29.82,SSE,147,8.0,12.8,11,0.00,,,-99.99,FreeWX-Wi 1.02,2013-08-18 22:33:00,
2013-08-18 15:38:00,104.9,41.9,29.82,SSE,148,8.0,15.9,12,0.00,,,-99.99,FreeWX-Wi 1.02,2013-08-18 22:38:00,
2013-08-18 15:43:00,104.7,41.9,29.82,SSE,149,8.0,10.1,12,0.00,,,-99.99,FreeWX-Wi 1.02,2013-08-18 22:43:00,
2013-08-18 15:48:00,104.5,41.7,29.82,SSE,153,8.0,15.4,12,0.00,,,-99.99,FreeWX-Wi 1.02,2013-08-18 22:48:00,
2013-08-18 15:53:00,104.4,41.5,29.82,SSE,156,8.0,11.0,12,0.00,,,-99.99,FreeWX-Wi 1.02,2013-08-18 22:53:00,
2013-08-18 15:58:00,104.5,41.7,29.82,SSE,159,8.0,10.5,12,0.00,,,-99.99,FreeWX-Wi 1.02,2013-08-18 22:58:00,
2013-08-18 16:03:00,104.5,41.7,29.82,SSE,160,7.0,12.8,12,0.00,,,-99.99,FreeWX-Wi 1.02,2013-08-18 23:03:00,
2013-08-18 16:08:00,104.4,41.5,29.82,SSE,163,7.0,10.1,12,0.00,,,-99.99,FreeWX-Wi 1.02,2013-08-18 23:08:00,
2013-08-18 16:13:00,104.2,41.4,29.82,SSE,162,7.0,12.3,12,0.00,,,-99.99,FreeWX-Wi 1.02,2013-08-18 23:13:00,
2013-08-18 16:18:00,103.8,41.2,29.82,SSE,158,6.0,10.1,12,0.00,,,-99.99,FreeWX-Wi 1.02,2013-08-18 23:18:00,
2013-08-18 16:23:00,103.8,41.2,29.82,SSE,155,6.0,11.0,12,0.00,,,-99.99,FreeWX-Wi 1.02,2013-08-18 23:23:00,
2013-08-18 16:28:00,103.1,40.6,29.82,SSE,159,6.0,10.1,12,0.00,,,-99.99,FreeWX-Wi 1.02,2013-08-18 23:28:00,
2013-08-18 16:33:00,102.9,40.5,29.82,SSE,155,6.0,11.9,12,0.00,,,-99.99,FreeWX-Wi 1.02,2013-08-18 23:33:00,
2013-08-18 16:38:00,102.9,40.5,29.82,SSE,153,6.0,8.7,12,0.00,,,-99.99,FreeWX-Wi 1.02,2013-08-18 23:38:00,
2013-08-18 16:43:00,103.8,41.2,29.82,SSE,154,6.0,11.0,12,0.00,,,-99.99,FreeWX-Wi 1.02,2013-08-18 23:43:00,
2013-08-18 16:48:00,105.3,42.3,29.82,SSE,153,6.0,8.3,12,0.00,,,-99.99,FreeWX-Wi 1.02,2013-08-18 23:48:00,
2013-08-18 16:53:00,105.3,42.3,29.79,SSE,151,6.0,8.7,12,0.00,,,-99.99,FreeWX-Wi 1.02,2013-08-18 23:53:00,
2013-08-18 16:58:00,104.0,41.4,29.79,SE,145,6.0,10.1,12,0.00,,,-99.99,FreeWX-Wi 1.02,2013-08-18 23:58:00,
2013-08-18 17:03:00,103.3,40.8,29.79,SE,140,5.0,8.7,12,0.00,,,-99.99,FreeWX-Wi 1.02,2013-08-19 00:03:00,
2013-08-18 17:08:00,102.9,40.5,29.79,SE,141,5.0,6.3,12,0.00,,,-99.99,FreeWX-Wi 1.02,2013-08-19 00:08:00,
2013-08-18 17:13:00,103.5,40.8,29.79,SE,144,5.0,6.3,12,0.00,,,-99.99,FreeWX-Wi 1.02,2013-08-19 00:13:00,
2013-08-18 17:18:00,104.4,41.5,29.79,SSE,147,5.0,10.5,12,0.00,,,-99.99,FreeWX-Wi 1.02,2013-08-19 00:18:00,
2013-08-18 17:23:00,104.9,41.9,29.79,SSE,150,5.0,8.3,12,0.00,,,-99.99,FreeWX-Wi 1.02,2013-08-19 00:23:00,
2013-08-18 17:28:00,104.9,41.9,29.79,SSE,156,5.0,8.1,12,0.00,,,-99.99,FreeWX-Wi 1.02,2013-08-19 00:28:00,
2013-08-18 17:33:00,105.1,42.1,29.79,SSE,161,5.0,7.6,12,0.00,,,-99.99,FreeWX-Wi 1.02,2013-08-19 00:33:00,
2013-08-18 17:38:00,104.9,41.9,29.79,SSE,155,5.0,8.3,12,0.00,,,-99.99,FreeWX-Wi 1.02,2013-08-19 00:38:00,
2013-08-18 17:43:00,104.9,41.9,29.79,SSE,155,5.0,7.6,12,0.00,,,-99.99,FreeWX-Wi 1.02,2013-08-19 00:43:00,
2013-08-18 17:48:00,104.7,41.9,29.79,SSE,153,5.0,7.6,12,0.00,,,-99.99,FreeWX-Wi 1.02,2013-08-19 00:48:00,
2013-08-18 17:53:00,104.2,41.4,29.79,SSE,148,4.0,7.2,12,0.00,,,-99.99,FreeWX-Wi 1.02,2013-08-19 00:53:00,
2013-08-18 17:58:00,104.0,41.4,29.79,SE,146,4.0,6.7,12,0.00,,,-99.99,FreeWX-Wi 1.02,2013-08-19 00:58:00,
2013-08-18 18:03:00,103.6,41.0,29.79,SE,145,4.0,7.6,12,0.00,,,-99.99,FreeWX-Wi 1.02,2013-08-19 01:03:00,
2013-08-18 18:08:00,103.5,40.8,29.79,SSE,150,4.0,5.4,12,0.00,,,-99.99,FreeWX-Wi 1.02,2013-08-19 01:08:00,
2013-08-18 18:13:00,103.1,40.6,29.79,SSE,157,4.0,5.8,12,0.00,,,-99.99,FreeWX-Wi 1.02,2013-08-19 01:13:00,
2013-08-18 18:18:00,102.9,40.5,29.79,SSE,160,3.0,5.4,12,0.00,,,-99.99,FreeWX-Wi 1.02,2013-08-19 01:18:00,
2013-08-18 18:23:00,102.0,39.7,29.79,SSE,166,3.0,5.8,12,0.00,,,-99.99,FreeWX-Wi 1.02,2013-08-19 01:23:00,
2013-08-18 18:28:00,102.2,39.9,29.79,SSE,165,3.0,5.4,12,0.00,,,-99.99,FreeWX-Wi 1.02,2013-08-19 01:28:00,
2013-08-18 18:33:00,102.0,39.7,29.79,SSE,165,3.0,5.8,12,0.00,,,-99.99,FreeWX-Wi 1.02,2013-08-19 01:33:00,
2013-08-18 18:38:00,101.8,39.6,29.79,SSE,164,2.0,4.9,12,0.00,,,-99.99,FreeWX-Wi 1.02,2013-08-19 01:38:00,
2013-08-18 18:43:00,100.9,39.0,29.79,South,170,3.0,8.3,12,0.00,,,-99.99,FreeWX-Wi 1.02,2013-08-19 01:43:00,
2013-08-18 18:48:00,100.4,38.5,29.79,South,187,4.0,8.3,12,0.00,,,-99.99,FreeWX-Wi 1.02,2013-08-19 01:48:00,
2013-08-18 18:53:00,99.9,40.1,29.79,SSW,209,4.0,12.3,13,0.00,,,-99.99,FreeWX-Wi 1.02,2013-08-19 01:53:00,
2013-08-18 18:58:00,99.5,39.9,29.79,SW,232,5.0,10.5,13,0.00,,,-99.99,FreeWX-Wi 1.02,2013-08-19 01:58:00,
2013-08-18 19:03:00,99.3,39.7,29.79,WSW,250,6.0,8.7,13,0.00,,,-99.99,FreeWX-Wi 1.02,2013-08-19 02:03:00,
2013-08-18 19:08:00,99.1,39.6,29.79,West,261,6.0,9.6,13,0.00,,,-99.99,FreeWX-Wi 1.02,2013-08-19 02:08:00,
2013-08-18 19:13:00,98.6,39.2,29.79,West,262,6.0,11.0,13,0.00,,,-99.99,FreeWX-Wi 1.02,2013-08-19 02:13:00,
2013-08-18 19:18:00,98.2,38.8,29.79,West,263,6.0,10.5,13,0.00,,,-99.99,FreeWX-Wi 1.02,2013-08-19 02:18:00,
2013-08-18 19:23:00,97.9,38.7,29.82,West,265,5.0,10.5,13,0.00,,,-99.99,FreeWX-Wi 1.02,2013-08-19 02:23:00,
2013-08-18 19:28:00,97.5,38.3,29.82,West,266,6.0,15.9,13,0.00,,,-99.99,FreeWX-Wi 1.02,2013-08-19 02:28:00,
2013-08-18 19:33:00,97.0,37.9,29.82,West,267,6.0,10.5,13,0.00,,,-99.99,FreeWX-Wi 1.02,2013-08-19 02:33:00,
2013-08-18 19:38:00,96.6,39.6,29.82,West,268,6.0,15.4,14,0.00,,,-99.99,FreeWX-Wi 1.02,2013-08-19 02:38:00,
2013-08-18 19:43:00,96.1,39.2,29.82,West,269,6.0,10.1,14,0.00,,,-99.99,FreeWX-Wi 1.02,2013-08-19 02:43:00,
2013-08-18 19:48:00,95.7,38.8,29.82,West,270,6.0,10.1,14,0.00,,,-99.99,FreeWX-Wi 1.02,2013-08-19 02:48:00,
2013-08-18 19:53:00,95.4,38.7,29.82,West,270,6.0,8.1,14,0.00,,,-99.99,FreeWX-Wi 1.02,2013-08-19 02:53:00,
2013-08-18 19:58:00,95.0,38.3,29.82,West,271,5.0,8.7,14,0.00,,,-99.99,FreeWX-Wi 1.02,2013-08-19 02:58:00,
2013-08-18 20:03:00,94.6,37.9,29.82,West,273,5.0,6.3,14,0.00,,,-99.99,FreeWX-Wi 1.02,2013-08-19 03:03:00,
2013-08-18 20:08:00,94.3,37.8,29.82,WNW,283,4.0,5.8,14,0.00,,,-99.99,FreeWX-Wi 1.02,2013-08-19 03:08:00,
2013-08-18 20:13:00,94.3,37.8,29.82,WNW,290,4.0,7.6,14,0.00,,,-99.99,FreeWX-Wi 1.02,2013-08-19 03:13:00,
2013-08-18 20:18:00,93.7,31.3,29.82,NW,304,3.0,5.4,11,0.00,,,-99.99,FreeWX-Wi 1.02,2013-08-19 03:18:00,
2013-08-18 20:23:00,93.7,31.3,29.82,NW,321,2.0,7.6,11,0.00,,,-99.99,FreeWX-Wi 1.02,2013-08-19 03:23:00,
2013-08-18 20:28:00,93.4,30.9,29.82,NNW,330,2.0,6.3,11,0.00,,,-99.99,FreeWX-Wi 1.02,2013-08-19 03:28:00,
2013-08-18 20:33:00,93.0,32.9,29.82,NNW,328,2.0,5.4,12,0.00,,,-99.99,FreeWX-Wi 1.02,2013-08-19 03:33:00,
2013-08-18 20:38:00,92.8,32.7,29.82,NW,322,2.0,6.3,12,0.00,,,-99.99,FreeWX-Wi 1.02,2013-08-19 03:38:00,
2013-08-18 20:43:00,92.7,32.5,29.82,NW,312,2.0,5.8,12,0.00,,,-99.99,FreeWX-Wi 1.02,2013-08-19 03:43:00,
2013-08-18 20:48:00,92.5,32.5,29.82,WNW,295,2.0,10.1,12,0.00,,,-99.99,FreeWX-Wi 1.02,2013-08-19 03:48:00,
2013-08-18 20:53:00,92.1,32.2,29.85,WNW,284,2.0,7.6,12,0.00,,,-99.99,FreeWX-Wi 1.02,2013-08-19 03:53:00,
2013-08-18 20:58:00,92.1,32.2,29.85,West,281,2.0,4.0,12,0.00,,,-99.99,FreeWX-Wi 1.02,2013-08-19 03:58:00,
2013-08-18 21:03:00,92.3,32.4,29.85,WNW,295,2.0,4.9,12,0.00,,,-99.99,FreeWX-Wi 1.02,2013-08-19 04:03:00,
2013-08-18 21:08:00,92.5,32.5,29.85,NW,306,2.0,5.8,12,0.00,,,-99.99,FreeWX-Wi 1.02,2013-08-19 04:08:00,
2013-08-18 21:13:00,92.1,32.2,29.85,NW,313,2.0,7.6,12,0.00,,,-99.99,FreeWX-Wi 1.02,2013-08-19 04:13:00,
2013-08-18 21:18:00,92.3,32.4,29.85,NNW,335,1.0,3.6,12,0.00,,,-99.99,FreeWX-Wi 1.02,2013-08-19 04:18:00,
2013-08-18 21:23:00,91.9,32.0,29.85,NNW,337,1.0,2.7,12,0.00,,,-99.99,FreeWX-Wi 1.02,2013-08-19 04:23:00,
2013-08-18 21:28:00,91.4,31.6,29.85,NNW,333,1.0,0.0,12,0.00,,,-99.99,FreeWX-Wi 1.02,2013-08-19 04:28:00,
2013-08-18 21:33:00,91.0,31.3,29.85,NW,322,1.0,0.0,12,0.00,,,-99.99,FreeWX-Wi 1.02,2013-08-19 04:33:00,
2013-08-18 21:38:00,91.0,31.3,29.85,North,-999,0.0,0.0,12,0.00,,,-99.99,FreeWX-Wi 1.02,2013-08-19 04:38:00,
2013-08-18 21:43:00,91.0,31.3,29.85,North,-999,0.0,3.6,12,0.00,,,-99.99,FreeWX-Wi 1.02,2013-08-19 04:43:00,
2013-08-18 21:48:00,90.9,31.3,29.85,North,-999,0.0,2.7,12,0.00,,,-99.99,FreeWX-Wi 1.02,2013-08-19 04:48:00,
2013-08-18 21:53:00,90.9,31.3,29.85,North,-999,0.0,2.2,12,0.00,,,-99.99,FreeWX-Wi 1.02,2013-08-19 04:53:00,
2013-08-18 21:58:00,90.1,30.7,29.85,North,-999,0.0,2.7,12,0.00,,,-99.99,FreeWX-Wi 1.02,2013-08-19 04:58:00,
2013-08-18 22:03:00,90.0,30.6,29.85,North,-999,0.0,2.7,12,0.00,,,-99.99,FreeWX-Wi 1.02,2013-08-19 05:03:00,
2013-08-18 22:08:00,89.2,32.0,29.85,North,-999,0.0,0.0,13,0.00,,,-99.99,FreeWX-Wi 1.02,2013-08-19 05:08:00,
2013-08-18 22:13:00,88.7,31.5,29.85,North,-999,0.0,0.0,13,0.00,,,-99.99,FreeWX-Wi 1.02,2013-08-19 05:13:00,
2013-08-18 22:18:00,88.3,31.3,29.85,North,-999,0.0,0.0,13,0.00,,,-99.99,FreeWX-Wi 1.02,2013-08-19 05:18:00,
2013-08-18 22:23:00,88.3,31.3,29.85,North,-999,0.0,0.0,13,0.00,,,-99.99,FreeWX-Wi 1.02,2013-08-19 05:23:00,
2013-08-18 22:28:00,88.3,31.3,29.85,North,-999,0.0,0.0,13,0.00,,,-99.99,FreeWX-Wi 1.02,2013-08-19 05:28:00,
2013-08-18 22:33:00,88.3,31.3,29.85,North,-999,0.0,0.0,13,0.00,,,-99.99,FreeWX-Wi 1.02,2013-08-19 05:33:00,
2013-08-18 22:38:00,88.2,31.1,29.85,North,-999,0.0,0.0,13,0.00,,,-99.99,FreeWX-Wi 1.02,2013-08-19 05:38:00,
2013-08-18 22:43:00,88.3,31.3,29.85,North,-999,0.0,0.0,13,0.00,,,-99.99,FreeWX-Wi 1.02,2013-08-19 05:43:00,
2013-08-18 22:48:00,88.0,30.9,29.85,North,-999,0.0,0.0,13,0.00,,,-99.99,FreeWX-Wi 1.02,2013-08-19 05:48:00,
2013-08-18 22:53:00,87.4,30.6,29.85,North,-999,0.0,0.0,13,0.00,,,-99.99,FreeWX-Wi 1.02,2013-08-19 05:53:00,
2013-08-18 22:58:00,87.8,30.7,29.85,North,-999,0.0,0.0,13,0.00,,,-99.99,FreeWX-Wi 1.02,2013-08-19 05:58:00,
2013-08-18 23:03:00,87.4,30.6,29.85,North,-999,0.0,0.0,13,0.00,,,-99.99,FreeWX-Wi 1.02,2013-08-19 06:03:00,
2013-08-18 23:08:00,87.3,30.4,29.85,North,-999,0.0,0.0,13,0.00,,,-99.99,FreeWX-Wi 1.02,2013-08-19 06:08:00,
2013-08-18 23:13:00,87.1,30.2,29.85,North,-999,0.0,0.0,13,0.00,,,-99.99,FreeWX-Wi 1.02,2013-08-19 06:13:00,
2013-08-18 23:18:00,86.7,30.0,29.85,North,-999,0.0,0.0,13,0.00,,,-99.99,FreeWX-Wi 1.02,2013-08-19 06:18:00,
2013-08-18 23:23:00,86.7,30.0,29.85,North,-999,0.0,3.6,13,0.00,,,-99.99,FreeWX-Wi 1.02,2013-08-19 06:23:00,
2013-08-18 23:28:00,86.9,30.2,29.85,North,-999,0.0,0.0,13,0.00,,,-99.99,FreeWX-Wi 1.02,2013-08-19 06:28:00,
2013-08-18 23:33:00,86.5,29.8,29.85,North,-999,0.0,0.0,13,0.00,,,-99.99,FreeWX-Wi 1.02,2013-08-19 06:33:00,
2013-08-18 23:38:00,86.4,29.7,29.85,North,-999,0.0,2.7,13,0.00,,,-99.99,FreeWX-Wi 1.02,2013-08-19 06:38:00,
2013-08-18 23:43:00,86.9,30.2,29.85,North,-999,0.0,0.0,13,0.00,,,-99.99,FreeWX-Wi 1.02,2013-08-19 06:43:00,
2013-08-18 23:48:00,87.1,30.2,29.85,North,-999,0.0,4.9,13,0.00,,,-99.99,FreeWX-Wi 1.02,2013-08-19 06:48:00,
2013-08-18 23:53:00,87.1,30.2,29.88,North,-999,0.0,5.4,13,0.00,,,-99.99,FreeWX-Wi 1.02,2013-08-19 06:53:00,
2013-08-18 23:58:00,87.4,30.6,29.88,West,276,1.0,6.3,13,0.00,,,-99.99,FreeWX-Wi 1.02,2013-08-19 06:58:00,